This is the latest recevied weather packets stored in our database for station/object K3FAZ. If no packets are shown the sender has not sent any weather packets the latest 10 day(s).
| Time | Temp. | Humidity | Pressure | Rain* | Wind** | Luminosity | Snow |
|---|---|---|---|---|---|---|---|
| 1777675024 | 7.78° C | 93% | 1014.2 hPa | 0 mm | - | 17 W/m² | - |
| 1777674720 | 7.78° C | 93% | 1014.1 hPa | 0 mm | - | 18 W/m² | - |
| 1777674417 | 7.78° C | 93% | 1014.2 hPa | 0 mm | - | 29 W/m² | - |
| 1777674114 | 7.78° C | 93% | 1014.3 hPa | 0 mm | - | 39 W/m² | - |
| 1777673810 | 7.78° C | 92% | 1014.2 hPa | 0 mm | - | 33 W/m² | - |
| 1777673508 | 7.78° C | 92% | 1014.2 hPa | 0 mm | - | 61 W/m² | - |
| 1777673205 | 7.78° C | 91% | 1014.2 hPa | 0 mm | - | 39 W/m² | - |
| 1777672902 | 7.78° C | 91% | 1014.3 hPa | 0 mm | - | 37 W/m² | - |
| 1777672599 | 7.78° C | 91% | 1014.2 hPa | 0 mm | - | 44 W/m² | - |
| 1777672294 | 7.78° C | 91% | 1014.2 hPa | 0 mm | - | 45 W/m² | - |
| 1777671989 | 7.78° C | 91% | 1014.1 hPa | 0 mm | - | 77 W/m² | - |
| 1777671685 | 7.78° C | 92% | 1014.2 hPa | 0 mm | - | 74 W/m² | - |
| 1777671382 | 7.78° C | 92% | 1014.2 hPa | 0 mm | - | 48 W/m² | - |
| 1777671078 | 7.78° C | 91% | 1014.1 hPa | 0 mm | - | 41 W/m² | - |
| 1777670775 | 7.78° C | 91% | 1014.3 hPa | 0 mm | - | 54 W/m² | - |
| 1777670471 | 7.78° C | 91% | 1014.4 hPa | 0 mm | - | 39 W/m² | - |
| 1777670168 | 7.78° C | 91% | 1014.3 hPa | 1.27 mm | - | 37 W/m² | - |
| 1777669866 | 7.78° C | 93% | 1014.6 hPa | 3.05 mm | - | 52 W/m² | - |
| 1777669562 | 7.78° C | 93% | 1014.4 hPa | 3.05 mm | - | 89 W/m² | - |
| 1777669259 | 7.78° C | 93% | 1014.4 hPa | 1.27 mm | - | 33 W/m² | - |
| 1777668955 | 7.78° C | 92% | 1014.6 hPa | 1.78 mm | - | 56 W/m² | - |
| 1777668653 | 7.78° C | 92% | 1014.4 hPa | 1.78 mm | - | 34 W/m² | - |
| 1777668349 | 7.78° C | 91% | 1014.5 hPa | 1.27 mm | - | 44 W/m² | - |
| 1777668045 | 7.78° C | 90% | 1014.4 hPa | 1.27 mm | - | 48 W/m² | - |
| 1777667742 | 7.78° C | 89% | 1014.2 hPa | 1.78 mm | - | 71 W/m² | - |
* Rain latest hour (hover to see other rain measurements)
** Current wind speed in m/s (hover to see current wind gust speed)